Regional Weather Roundup
Issued by NWS

Home | Current Version | Previous Version | Text Only | Print | Product List | Glossary Off
Versions: 1 2 3 4 5 6 7 8 9 10 11 12 13 14 15 16 17 18 19 20 21 22 23 24 25 26 27 28 29 30 31 32 33 34 35 36 37 38 39 40 41 42 43 44 45 46 47 48 49 50

000
ASUS43 KLOT 271709
RWRIL

ILLINOIS REGIONAL WEATHER ROUNDUP
NATIONAL WEATHER SERVICE CHICAGO/ROMEOVILLE IL
1200 PM CDT THU JUL 27 2017

NOTE: "FAIR" INDICATES FEW OR NO CLOUDS BELOW 12,000 FEET WITH NO
SIGNIFICANT WEATHER AND/OR OBSTRUCTIONS TO VISIBILITY.

* THESE STATIONS ARE NOT UNDER NWS QUALITY CONTROL. THEY ALSO MAY NOT
  REPORT WEATHER SUCH AS PRECIPITATION OR FOG.

ILZ001-002-007-009-015-016-024-271800-
NORTHWEST ILLINOIS

CITY           SKY/WX    TMP DP  RH WIND       PRES   REMARKS
MOLINE         CLOUDY    79  70  74 N6        29.96F HX  82
STERLING*      CLOUDY    79  73  82 NE5       29.97S HX  82
SAVANNA*       PTSUNNY   78  70  74 NE9       29.98S HX  81
$$

ILZ003-004-008-010-011-017-018-271800-
NORTH CENTRAL ILLINOIS

CITY           SKY/WX    TMP DP  RH WIND       PRES   REMARKS
ROCKFORD       PTSUNNY   82  70  66 NE14      29.98S HX  86
FREEPORT*      PTSUNNY   77  70  78 NE13      30.00S
ROCHELLE*      CLOUDY    76  71  84 N9        29.98R
DE KALB*       CLOUDY    78  71  78 NE9       29.98S HX  80
PERU*          CLOUDY    78  71  78 NE6       29.95F HX  80
$$

ILZ005-006-012>014-019>023-271800-
NORTHEAST ILLINOIS

CITY           SKY/WX    TMP DP  RH WIND       PRES   REMARKS
CHICAGO-OHARE  PTSUNNY   80  68  66 NE15      29.95S HX  83
CHICAGO-MIDWAY PTSUNNY   80  70  71 NE14      29.94S HX  83
AURORA         PTSUNNY   83  72  69 N9        29.95F HX  88
LANSING*       CLOUDY    76  70  82 NE6       29.95S HAZE
JOLIET*        LGT RAIN  79  74  83 NE3       29.94S HX  82
WAUKEGAN       PTSUNNY   74  69  85 NE14G21   29.97R
DUPAGE AIRPORT MOSUNNY   83  70  64 NE14      29.95S HX  87
KANKAKEE*      PTSUNNY   80  71  74 NE3       29.94F HX  84
WHEELING       CLOUDY    77  70  79 N13       29.97F
MORRIS*        CLOUDY    79  73  80 CALM      29.93S HX  83
ROMEOVILLE*    CLOUDY    81  69  66 E9        29.94S HX  84
NORTHERLY ISL    N/A     75  69  81 MISG        N/A
$$

LMZ740>746-271800-
SOUTHERN LAKE MICHIGAN

STATION/POSITION SKY/WX   TEMP    WIND        PRES    VSBY  WAVE
                          AIR SEA DIR/SP/G                  HT/PER
                          (F)     (DEG/KT/KT) (MB)    (MI)  (FT/S)
SOUTHERN BUOY              70 71   10/ 12/ 14 1014.1          1/ 3
WILMETTE HARBOR            71 72  360/ 14/ 17   N/A           2/ 3
HARRISON CRIB              72     360/ 17/ 19   N/A
BURNHAM HARBOR             75                   N/A
CALUMET HARBOR             74     350/ 12/ 16 1013.8R
BURNS HARBOR               74     360/  6/  7 1014.2S
MICHIGAN CITY              75     360/  7/  7   N/A
MICHIGAN CITY 6N           74 75   10/  6/  8   N/A           0
ST. JOSEPH                 74 75   10/ 10/ 12 1013.3          1
$$

ILZ025>027-034>036-040-047-049-050-058-095>099-271800-
WEST-CENTRAL ILLINOIS

CITY           SKY/WX    TMP DP  RH WIND       PRES   REMARKS
QUINCY         LGT RAIN  79  73  82 NE7       29.94F HX  82
GALESBURG*     CLOUDY    77  71  81 NE7       29.97S
MACOMB*        CLOUDY    79  73  82 NE7       29.97S HX  82
JACKSONVILLE*  HVY RAIN  75  74  95 CALM      29.94S
PITTSFIELD*    RAIN      75  74  96 N8        29.94F
$$

ILZ028>032-037-038-041>044-048-051>054-059>061-271800-
CENTRAL ILLINOIS

CITY           SKY/WX    TMP DP  RH WIND       PRES   REMARKS
PONTIAC        LGT RAIN  76  76  98 N8        29.95S
BLOOMINGTON    CLOUDY    77  72  84 N10       29.95F
DECATUR        CLOUDY    77  74  90 SW9       29.94S
PEORIA         CLOUDY    80  73  79 VRB5      29.94S HX  84
LACON*         CLOUDY    78  73  84 N5        29.93F HX  81
LINCOLN*       PTSUNNY   80  76  85 CALM      29.93S HX  86
SPRINGFIELD    CLOUDY    78  76  93 SW6       29.94S HX  81
TAYLORVILLE    DRIZZLE   74  74  98 SW9       29.95S
$$

ILZ033-039-045-046-055>057-062-063-271800-
EAST-CENTRAL ILLINOIS

CITY           SKY/WX    TMP DP  RH WIND       PRES   REMARKS
CHAMPAIGN      CLOUDY    76  73  91 SW8       29.94F
RANTOUL*       CLOUDY    80  75  87 NW8       29.94S HX  84
MATTOON        LGT RAIN  75  74  96 W5        29.95S
PARIS*         CLOUDY    73  73  98 W10G16    29.96S
$$

ILZ079-100>102-271800-
SOUTHWEST ILLINOIS

CITY           SKY/WX    TMP DP  RH WIND       PRES   REMARKS
ALTON          CLOUDY    77  75  94 SW7       29.97S
BELLEVILLE     DRIZZLE   79  75  89 CALM      29.97F HX  82
CAHOKIA*       CLOUDY    81  74  79 W6        29.96S HX  86
SPARTA*        CLOUDY    79  75  85 W6        29.99S HX  83
$$

ILZ064>066-069>071-074>076-080>082-084>086-088>090-092>094-271800-
SOUTH-CENTRAL ILLINOIS

CITY           SKY/WX    TMP DP  RH WIND       PRES   REMARKS
CARBONDALE     CLOUDY    83  77  82 W6        29.98R HX  92
CAIRO*         CLOUDY    84  77  78 W7        29.97S HX  94
EFFINGHAM*     CLOUDY    80  75  84 SW9       29.98S HX  84
MARION         CLOUDY    84  79  84 W6        29.98S HX  96
MT. VERNON     CLOUDY    79  75  87 CALM      29.98S HX  83
CENTRALIA*     CLOUDY    79  76  91 S5        29.97S HX  83
SALEM*         CLOUDY    80  75  84 SW6       29.98S HX  84
METROPOLIS*    CLOUDY    87  78  72 SW5       29.98R HX 100
$$

ILZ067-068-072-073-078-083-087-091-271800-
SOUTHEAST ILLINOIS

CITY           SKY/WX    TMP DP  RH WIND       PRES   REMARKS
LAWRENCEVILLE  CLOUDY    79  74  84 W6        29.97S HX  82
FLORA*         CLOUDY    80  75  85 SW6       29.98R HX  85
FAIRFIELD*     CLOUDY    77  75  92 CALM      29.97R
HARRISBURG*    PTSUNNY   84  77  79 CALM      29.97S HX  95
ROBINSON*      LGT RAIN  78  74  87 W7        29.98R HX  80
CARMI*         CLOUDY    78  76  92 CALM      29.97S HX  80
$$

ABBREVIATIONS USED IN REMARKS
   TC - TEMPERATURE IN CELSIUS
  WCI - WIND CHILL INDEX
   HX - HEAT INDEX
  VSB - VISIBILITY
$$





USA.gov is the U.S. government's official web portal to all federal, state and local government web resources and services.